EW8804 La Poblachuela ES current weather conditions

sailwx.info

Wind from 268

Air temperature 7.2° C
Dewpoint 4.2° C

Last reported at 2020-Jan-17 19:02 UTC.
Time now 2020-Jan-17 19:39 UTC

Location: N 38°58' W 003°57'.
View on Google Maps.

See reports from other nearby stations

  
Tides and Currents Weather Stations Pressure Air Temp Water Temp Dewpoint Dewpoint Depression Visibility Wind Speed Wind Dir Waves Ship Positions
date/time (UTC)wind fromknots sea level pressurealtimeterstation pressurevisibilityair tempwater tempwave heightnotes
2020-Jan-17 19:02 268 7.2
2020-Jan-17 18:57 268 7.8
2020-Jan-17 18:52 268 7.8
2020-Jan-17 18:47 268 7.8
2020-Jan-17 18:42 268 8.3
2020-Jan-17 18:37 268 8.3
2020-Jan-17 18:32 268 8.3
2020-Jan-17 18:27 268 8.9
2020-Jan-17 18:22 268 8.9
2020-Jan-17 18:17 268 8.9
2020-Jan-17 18:12 268 8.9
2020-Jan-17 18:07 268 9.4
2020-Jan-17 18:02 268 9.4
2020-Jan-17 17:57 268 9.4
2020-Jan-17 17:52 268 9.4
2020-Jan-17 17:47 268 10.0
2020-Jan-17 17:42 268 10.0
2020-Jan-17 17:37 268 10.0
2020-Jan-17 17:32 268 10.6
2020-Jan-17 17:27 268 10.6
2020-Jan-17 17:22 268 10.6
2020-Jan-17 17:17 268 0 gusting 4 10.6
2020-Jan-17 17:12 268 0 gusting 4 11.1
2020-Jan-17 17:07 268 2 gusting 3 11.1
2020-Jan-17 17:02 268 11.1
2020-Jan-17 16:57 268 11.7
2020-Jan-17 16:52 268 0 gusting 5 11.7
2020-Jan-17 16:47 268 1 gusting 5 11.7
2020-Jan-17 16:42 268 1 gusting 9 12.2
2020-Jan-17 16:37 268 2 gusting 9 12.2
2020-Jan-17 16:32 267 3 gusting 7 12.8
2020-Jan-17 16:27 267 1 gusting 7 12.8
2020-Jan-17 16:22 267 3 gusting 5 13.3
2020-Jan-17 16:17 266 13.3
2020-Jan-17 16:12 266 13.3
2020-Jan-17 16:07 266 1 gusting 3 13.3
2020-Jan-17 16:02 266 0 gusting 6 13.3
2020-Jan-17 15:57 266 2 gusting 6 12.8
2020-Jan-17 15:52 266 1 gusting 6 12.8
2020-Jan-17 15:47 266 3 gusting 6 12.8
2020-Jan-17 15:42 266 3 gusting 5 13.3
2020-Jan-17 15:37 266 3 gusting 5 13.3
2020-Jan-17 15:32 267 1 gusting 6 13.3
2020-Jan-17 15:27 267 1 gusting 7 13.3
2020-Jan-17 15:22 267 3 gusting 8 13.3
2020-Jan-17 15:17 265 4 gusting 8 13.3
2020-Jan-17 15:12 267 4 gusting 7 13.3
2020-Jan-17 15:07 267 3 gusting 7 13.3
2020-Jan-17 15:02 266 3 gusting 7 12.8
2020-Jan-17 14:57 269 2 gusting 7 12.8
2020-Jan-17 14:52 269 4 gusting 9 12.8
2020-Jan-17 14:47 271 6 gusting 9 12.8
2020-Jan-17 14:42 265 4 gusting 7 12.8
2020-Jan-17 14:37 265 3 gusting 6 12.8
2020-Jan-17 14:32 265 2 gusting 6 12.8
2020-Jan-17 14:27 266 1 gusting 7 12.8
2020-Jan-17 14:22 266 12.8
2020-Jan-17 14:17 267 3 gusting 6 12.8
2020-Jan-17 14:12 267 2 gusting 8 12.8
2020-Jan-17 14:07 267 0 gusting 8 12.8
2020-Jan-17 14:02 267 0 gusting 9 12.8
2020-Jan-17 13:57 269 5 gusting 9 12.8
2020-Jan-17 13:52 271 3 gusting 10 12.8
2020-Jan-17 13:47 265 6 gusting 10 12.8
2020-Jan-17 13:42 265 4 gusting 8 12.8
2020-Jan-17 13:37 265 4 gusting 7 12.8
2020-Jan-17 13:32 261 1 gusting 8 12.8
2020-Jan-17 13:27 261 5 gusting 9 12.8
2020-Jan-17 13:22 262 3 gusting 9 12.8
2020-Jan-17 13:17 259 5 gusting 9 12.8
2020-Jan-17 13:12 265 3 gusting 9 12.8
2020-Jan-17 13:07 267 4 gusting 9 12.8
2020-Jan-17 13:02 270 4 gusting 9 12.8
2020-Jan-17 12:57 274 1 gusting 7 12.8
2020-Jan-17 12:52 274 1 gusting 11 12.8
2020-Jan-17 12:47 274 4 gusting 11 12.8
2020-Jan-17 12:42 263 1 gusting 8 12.8
2020-Jan-17 12:37 263 3 gusting 7 12.2
2020-Jan-17 12:32 266 2 gusting 7 12.2
2020-Jan-17 12:27 265 4 gusting 7 12.2
2020-Jan-17 12:22 267 1 gusting 9 12.2
2020-Jan-17 12:17 265 4 gusting 9 12.2
2020-Jan-17 12:12 271 4 gusting 10 12.2
2020-Jan-17 12:07 267 0 gusting 10 12.2
2020-Jan-17 12:02 258 2 gusting 10 12.2
2020-Jan-17 11:57 255 3 gusting 10 12.2
2020-Jan-17 11:52 256 6 gusting 10 12.2
2020-Jan-17 11:47 252 6 gusting 10 12.8
2020-Jan-17 11:42 269 3 gusting 9 12.2
2020-Jan-17 11:37 271 1 gusting 9 12.2
2020-Jan-17 11:32 273 4 gusting 8 12.2
2020-Jan-17 11:27 265 2 gusting 13 11.7
2020-Jan-17 11:22 267 6 gusting 13 11.7
2020-Jan-17 11:17 288 3 gusting 6 11.7
2020-Jan-17 11:12 302 3 gusting 8 11.7
2020-Jan-17 11:07 296 5 gusting 10 11.7
2020-Jan-17 11:02 261 5 gusting 10 12.2
2020-Jan-17 10:57 259 4 gusting 9 12.2
2020-Jan-17 10:52 254 5 gusting 10 11.7
2020-Jan-17 10:47 266 6 gusting 10 11.7
2020-Jan-17 10:42 258 4 gusting 9 11.7
2020-Jan-17 10:37 263 3 gusting 11 11.1
2020-Jan-17 10:32 257 3 gusting 11 11.1
2020-Jan-17 10:27 263 5 gusting 11 10.6
2020-Jan-17 10:22 261 6 gusting 11 10.6
2020-Jan-17 10:17 268 4 gusting 8 10.6
2020-Jan-17 10:12 266 3 gusting 9 10.6
2020-Jan-17 10:07 265 4 gusting 9 10.6
2020-Jan-17 10:02 263 1 gusting 8 10.6
2020-Jan-17 09:57 255 1 gusting 6 10.6
2020-Jan-17 09:52 255 0 gusting 6 10.6
2020-Jan-17 09:47 255 1 gusting 5 10.0
2020-Jan-17 09:42 254 10.0
2020-Jan-17 09:37 254 1 gusting 4 9.4
2020-Jan-17 09:32 254 0 gusting 2 8.9
2020-Jan-17 09:27 254 0 gusting 2 8.9
2020-Jan-17 09:22 254 8.3
2020-Jan-17 09:17 254 1 gusting 2 8.3
2020-Jan-17 09:07 254 7.8
2020-Jan-17 09:02 254 7.8
2020-Jan-17 08:57 254 7.2
2020-Jan-17 08:52 254 7.2
2020-Jan-17 08:47 254 6.7
2020-Jan-17 08:42 255 6.7
2020-Jan-17 08:37 254 6.1
2020-Jan-17 08:32 254 6.1
2020-Jan-17 08:27 254 6.1
2020-Jan-17 08:22 254 6.1
2020-Jan-17 08:17 254 6.1
2020-Jan-17 08:12 254 6.1
2020-Jan-17 08:07 254 6.1
2020-Jan-17 08:02 254 6.1
2020-Jan-17 07:57 254 6.1
2020-Jan-17 07:52 254 6.1
2020-Jan-17 07:47 254 6.1
2020-Jan-17 07:42 254 6.7
2020-Jan-17 07:37 254 6.7
2020-Jan-17 07:32 254 7.2
2020-Jan-17 07:27 254 7.2
2020-Jan-17 07:22 254 7.2
2020-Jan-17 07:17 254 7.2
2020-Jan-17 07:12 254 7.8
2020-Jan-17 07:07 254 7.8
2020-Jan-17 07:02 254 7.8
2020-Jan-17 06:57 254 7.8
2020-Jan-17 06:52 254 7.8
2020-Jan-17 06:47 254 7.8
2020-Jan-17 06:42 254 7.8
2020-Jan-17 06:37 254 8.3
2020-Jan-17 06:32 254 8.3
2020-Jan-17 06:27 254 8.3
2020-Jan-17 06:22 254 8.3
2020-Jan-17 06:17 254 8.3
2020-Jan-17 06:12 254 8.3
2020-Jan-17 06:07 254 8.3
2020-Jan-17 06:02 254 8.9
2020-Jan-17 05:57 254 8.9
2020-Jan-17 05:52 254 8.9
2020-Jan-17 05:47 254 8.9
2020-Jan-17 05:42 254 8.9
2020-Jan-17 05:37 254 8.9
2020-Jan-17 05:32 254 8.9
2020-Jan-17 05:27 254 8.9
2020-Jan-17 05:22 254 8.9
2020-Jan-17 05:17 254 8.9
2020-Jan-17 05:12 254 8.9
2020-Jan-17 05:07 255 8.9
2020-Jan-17 05:02 254 9.4
2020-Jan-17 04:57 254 9.4
2020-Jan-17 04:52 254 9.4
2020-Jan-17 04:47 254 9.4
2020-Jan-17 04:42 254 9.4
2020-Jan-17 04:37 254 1 gusting 3 9.4
2020-Jan-17 04:32 254 0 gusting 4 9.4
2020-Jan-17 04:27 254 0 gusting 4 9.4
2020-Jan-17 04:22 255 0 gusting 4 9.4
2020-Jan-17 04:17 255 1 gusting 5 9.4
2020-Jan-17 04:12 255 9.4
2020-Jan-17 04:07 255 2 gusting 6 9.4
2020-Jan-17 04:02 256 0 gusting 4 9.4
2020-Jan-17 03:57 256 0 gusting 4 9.4
2020-Jan-17 03:52 256 1 gusting 5 9.4
2020-Jan-17 03:47 256 0 gusting 5 9.4
2020-Jan-17 03:42 256 1 gusting 5 9.4
2020-Jan-17 03:37 256 0 gusting 7 10.0
2020-Jan-17 03:32 253 2 gusting 7 10.0
2020-Jan-17 03:27 251 3 gusting 10 10.0
2020-Jan-17 03:22 252 5 gusting 10 9.4
2020-Jan-17 03:17 246 2 gusting 6 9.4
2020-Jan-17 03:12 245 4 gusting 6 8.9
2020-Jan-17 03:07 244 2 gusting 6 8.3
2020-Jan-17 03:02 243 1 gusting 3 7.8
2020-Jan-17 02:57 243 7.8
2020-Jan-17 02:52 243 7.8
2020-Jan-17 02:47 243 7.8
2020-Jan-17 02:42 243 7.8
2020-Jan-17 02:37 243 7.8
2020-Jan-17 02:32 243 7.8
2020-Jan-17 02:27 243 7.8
2020-Jan-17 02:22 243 7.8
2020-Jan-17 02:17 243 7.8
2020-Jan-17 02:12 243 8.3
2020-Jan-17 02:07 243 8.3
2020-Jan-17 02:02 242 8.3
2020-Jan-17 01:57 243 8.3
2020-Jan-17 01:52 243 8.3
2020-Jan-17 01:47 243 8.3
2020-Jan-17 01:42 243 8.3
2020-Jan-17 01:37 243 8.3
2020-Jan-17 01:32 243 8.3
2020-Jan-17 01:27 243 8.3
2020-Jan-17 01:22 243 0 gusting 3 8.3
2020-Jan-17 01:17 243 0 gusting 3 8.3
2020-Jan-17 01:12 242 2 gusting 4 8.3
2020-Jan-17 01:07 242 2 gusting 4 8.3
2020-Jan-17 01:02 242 8.3
2020-Jan-17 00:57 242 8.3
2020-Jan-17 00:52 243 1 gusting 4 8.3
2020-Jan-17 00:47 243 1 gusting 4 7.8
2020-Jan-17 00:42 243 1 gusting 4 7.8
2020-Jan-17 00:37 243 2 gusting 4 7.8
2020-Jan-17 00:32 243 2 gusting 5 7.8
2020-Jan-17 00:27 244 2 gusting 5 7.8
2020-Jan-17 00:22 244 0 gusting 3 7.8
2020-Jan-17 00:17 244 1 gusting 3 7.8
2020-Jan-17 00:12 244 7.8
2020-Jan-17 00:07 244 7.8
2020-Jan-17 00:02 244 7.8
2020-Jan-16 23:57 244 7.8
2020-Jan-16 23:52 244 7.8
2020-Jan-16 23:47 244 7.8
2020-Jan-16 23:42 244 7.8
2020-Jan-16 23:37 244 0 gusting 4 8.3
2020-Jan-16 23:32 244 8.3
2020-Jan-16 23:27 244 8.3
2020-Jan-16 23:22 244 8.3
2020-Jan-16 23:17 244 0 gusting 4 8.3
2020-Jan-16 23:12 244 1 gusting 5 8.3
2020-Jan-16 23:07 244 2 gusting 5 8.3
2020-Jan-16 23:02 243 1 gusting 3 8.3
2020-Jan-16 22:57 243 8.3
2020-Jan-16 22:52 243 1 gusting 3 8.3
2020-Jan-16 22:47 243 0 gusting 3 8.3
2020-Jan-16 22:42 243 1 gusting 2 8.3
2020-Jan-16 22:37 243 1 gusting 6 8.3
2020-Jan-16 22:32 243 0 gusting 7 8.3
2020-Jan-16 22:27 243 1 gusting 7 8.3
2020-Jan-16 22:22 244 1 gusting 4 8.3
2020-Jan-16 22:17 244 0 gusting 4 8.3
2020-Jan-16 22:12 244 2 gusting 6 8.3
2020-Jan-16 22:07 244 2 gusting 6 8.3
2020-Jan-16 22:02 245 2 gusting 6 8.3
2020-Jan-16 21:57 245 2 gusting 4 8.3
2020-Jan-16 21:52 245 1 gusting 4 8.3
2020-Jan-16 21:47 245 0 gusting 4 8.3
2020-Jan-16 21:42 245 2 gusting 3 8.3
2020-Jan-16 21:37 245 1 gusting 3 8.3
2020-Jan-16 21:32 245 1 gusting 3 8.3
2020-Jan-16 21:27 245 8.3
2020-Jan-16 21:22 245 0 gusting 2 8.3
2020-Jan-16 21:17 245 8.3
2020-Jan-16 21:12 245 8.3
2020-Jan-16 21:07 245 0 gusting 2 8.3
2020-Jan-16 21:02 245 8.3
2020-Jan-16 20:57 245 8.3
2020-Jan-16 20:52 245 8.3
2020-Jan-16 20:47 245 8.3
2020-Jan-16 20:42 245 0 gusting 1 8.3
2020-Jan-16 20:37 245 8.9
2020-Jan-16 20:32 245 8.9
2020-Jan-16 20:27 245 8.9
2020-Jan-16 20:22 245 8.9
2020-Jan-16 20:17 245 8.9
2020-Jan-16 20:12 245 8.9
2020-Jan-16 20:07 245 8.9
2020-Jan-16 20:02 245 9.4
2020-Jan-16 19:57 245 9.4
2020-Jan-16 19:52 245 9.4
2020-Jan-16 19:47 245 9.4
2020-Jan-16 19:42 245 0 gusting 2 9.4
2020-Jan-16 19:37 245 0 gusting 2 9.4
2020-Jan-16 19:32 245 9.4
2020-Jan-16 19:27 245 10.0
2020-Jan-16 19:22 245 10.0
2020-Jan-16 19:17 245 10.0
2020-Jan-16 19:12 245 10.0
2020-Jan-16 19:07 245 10.0
2020-Jan-16 19:02 245 10.0
2020-Jan-16 18:57 245 10.6
2020-Jan-16 18:52 245 10.6
2020-Jan-16 18:47 245 10.6
2020-Jan-16 18:42 245 11.1
2020-Jan-16 18:37 245 11.1
2020-Jan-16 18:32 245 11.1
2020-Jan-16 18:27 245 1 gusting 3 11.1
2020-Jan-16 18:22 245 11.1
2020-Jan-16 18:17 245 11.1
2020-Jan-16 18:12 245 0 gusting 2 11.1
2020-Jan-16 18:07 245 1 gusting 3 11.1
2020-Jan-16 18:02 245 0 gusting 3 11.1
2020-Jan-16 17:57 245 11.1
2020-Jan-16 17:52 245 11.1
2020-Jan-16 17:47 245 11.1
2020-Jan-16 17:42 245 0 gusting 1 11.1
2020-Jan-16 17:37 245 11.7
2020-Jan-16 17:32 245 0 gusting 2 11.7
2020-Jan-16 17:27 245 0 gusting 2 11.7
2020-Jan-16 17:22 245 1 gusting 3 12.2
2020-Jan-16 17:17 245 1 gusting 4 12.2
2020-Jan-16 17:12 245 2 gusting 4 12.8
2020-Jan-16 17:07 245 13.3
2020-Jan-16 17:02 245 13.3
2020-Jan-16 16:57 245 0 gusting 2 13.9
2020-Jan-16 16:52 245 1 gusting 3 13.9
2020-Jan-16 16:47 245 14.4
2020-Jan-16 16:42 245 14.4
2020-Jan-16 16:37 245 0 gusting 5 14.4
2020-Jan-16 16:32 245 3 gusting 5 15.0
2020-Jan-16 16:27 245 1 gusting 6 15.0
2020-Jan-16 16:22 244 1 gusting 6 15.6
2020-Jan-16 16:17 244 1 gusting 8 15.6
2020-Jan-16 16:12 244 1 gusting 9 15.6
2020-Jan-16 16:07 242 1 gusting 9 15.6
2020-Jan-16 16:02 244 4 gusting 7 15.6
2020-Jan-16 15:57 252 4 gusting 8 15.6
2020-Jan-16 15:52 252 2 gusting 8 15.6
2020-Jan-16 15:47 250 3 gusting 9 15.6
2020-Jan-16 15:42 252 3 gusting 9 15.6
2020-Jan-16 15:37 248 4 gusting 9 16.1
2020-Jan-16 15:32 257 4 gusting 9 16.1
2020-Jan-16 15:27 262 2 gusting 11 16.1
2020-Jan-16 15:22 264 4 gusting 11 16.1
2020-Jan-16 15:17 257 2 gusting 9 16.1
2020-Jan-16 15:12 262 3 gusting 9 16.1
2020-Jan-16 15:07 260 2 gusting 8 16.1
2020-Jan-16 15:02 254 6 gusting 10 16.1
2020-Jan-16 14:57 252 5 gusting 9 16.1
2020-Jan-16 14:52 264 5 gusting 10 16.1
2020-Jan-16 14:47 254 3 gusting 10 16.1
2020-Jan-16 14:42 259 4 gusting 9 16.1
2020-Jan-16 14:37 234 1 gusting 5 16.1
2020-Jan-16 14:32 227 1 gusting 7 16.1
2020-Jan-16 14:27 214 4 gusting 8 16.1
2020-Jan-16 14:22 251 2 gusting 8 16.1
2020-Jan-16 14:17 252 0 gusting 6 16.1
2020-Jan-16 14:12 256 3 gusting 6 16.1
2020-Jan-16 14:07 256 4 gusting 6 16.1
2020-Jan-16 14:02 248 2 gusting 6 16.1
2020-Jan-16 13:57 255 1 gusting 9 16.1
2020-Jan-16 13:52 257 5 gusting 9 16.1
2020-Jan-16 13:47 240 1 gusting 7 16.1
2020-Jan-16 13:42 242 1 gusting 7 15.6
2020-Jan-16 13:37 233 3 gusting 7 15.6
2020-Jan-16 13:32 266 4 gusting 7 15.6
2020-Jan-16 13:27 260 5 gusting 7 15.6
2020-Jan-16 13:22 250 15.6
2020-Jan-16 13:17 250 1 gusting 5 15.6
2020-Jan-16 13:12 250 1 gusting 5 15.6
2020-Jan-16 13:07 250 4 gusting 5 15.0
2020-Jan-16 13:02 256 1 gusting 4 15.0
2020-Jan-16 12:57 258 1 gusting 6 15.0
2020-Jan-16 12:52 260 3 gusting 6 15.0
2020-Jan-16 12:47 266 1 gusting 4 14.4
2020-Jan-16 12:42 267 14.4
2020-Jan-16 12:37 267 14.4
2020-Jan-16 12:32 267 13.9
2020-Jan-16 12:27 267 0 gusting 6 13.9
2020-Jan-16 12:22 267 1 gusting 6 13.9
2020-Jan-16 12:17 259 0 gusting 5 13.9
2020-Jan-16 12:12 259 13.9
2020-Jan-16 12:07 261 2 gusting 6 13.9
2020-Jan-16 12:02 258 2 gusting 5 13.9
2020-Jan-16 11:57 257 13.3
2020-Jan-16 11:53 257 0 gusting 3 13.3
2020-Jan-16 11:48 257 0 gusting 2 13.3
2020-Jan-16 11:32 257 12.8
2020-Jan-16 11:27 257 12.8
2020-Jan-16 11:22 257 12.8
2020-Jan-16 11:17 257 12.8
2020-Jan-16 11:13 257 12.8
2020-Jan-16 11:07 257 12.2
2020-Jan-16 10:57 257 12.2
2020-Jan-16 10:52 257 11.7
2020-Jan-16 10:47 257 11.7
2020-Jan-16 10:42 258 11.1
2020-Jan-16 10:37 258 10.6
2020-Jan-16 10:32 258 10.6
2020-Jan-16 10:27 258 10.0
2020-Jan-16 10:22 258 9.4
2020-Jan-16 10:17 258 9.4
2020-Jan-16 10:12 258 8.9
2020-Jan-16 10:07 258 8.9
2020-Jan-16 10:02 258 8.3
2020-Jan-16 09:57 258 8.3
2020-Jan-16 09:52 258 8.3
2020-Jan-16 09:47 258 8.3
2020-Jan-16 09:42 258 8.3
2020-Jan-16 09:37 258 7.8
2020-Jan-16 09:32 258 7.8
2020-Jan-16 09:27 258 7.2
2020-Jan-16 09:22 258 6.7
2020-Jan-16 09:17 258 6.7
2020-Jan-16 09:13 258 6.1
2020-Jan-16 09:07 258 5.6
2020-Jan-16 09:02 258 5.6
2020-Jan-16 08:57 258 5.0
2020-Jan-16 08:52 258 5.0
2020-Jan-16 08:47 258 4.4
2020-Jan-16 08:42 258 4.4
2020-Jan-16 08:37 258 4.4
2020-Jan-16 08:32 258 3.9
2020-Jan-16 08:28 258 3.9
2020-Jan-16 08:22 258 3.9
2020-Jan-16 08:17 258 3.9
2020-Jan-16 08:12 258 3.9
2020-Jan-16 08:07 258 3.9
2020-Jan-16 08:02 258 3.9
2020-Jan-16 07:57 258 3.9
2020-Jan-16 07:52 258 3.9
2020-Jan-16 07:47 258 3.9
2020-Jan-15 22:42 259 7.8
2020-Jan-15 22:37 259 7.2
2020-Jan-15 22:32 259 7.2
2020-Jan-15 22:27 259 7.2
2020-Jan-15 22:22 259 7.2
2020-Jan-15 22:17 259 7.2
2020-Jan-15 22:12 259 7.8
2020-Jan-15 22:07 259 7.8
2020-Jan-15 22:02 259 7.8
2020-Jan-15 21:57 259 7.8
2020-Jan-15 21:52 259 7.8
2020-Jan-15 21:47 259 7.8
2020-Jan-15 21:42 259 7.8
2020-Jan-15 21:37 259 8.3
2020-Jan-15 21:32 259 8.3
2020-Jan-15 21:27 259 8.3
2020-Jan-15 21:22 259 8.3
2020-Jan-15 21:17 259 8.3
2020-Jan-15 21:12 259 8.3
2020-Jan-15 21:07 259 8.9
2020-Jan-15 21:02 259 8.9
2020-Jan-15 20:57 259 8.9
2020-Jan-15 20:52 259 8.9
2020-Jan-15 20:47 259 8.9
2020-Jan-15 20:42 259 8.9
2020-Jan-15 20:37 259 8.9
2020-Jan-15 20:32 259 8.9
2020-Jan-15 20:27 259 8.9
2020-Jan-15 20:22 259 8.9
2020-Jan-15 20:17 259 8.9
2020-Jan-15 20:12 259 8.9
2020-Jan-15 20:07 259 8.9
2020-Jan-15 20:02 259 8.9
2020-Jan-15 19:57 259 8.9
2020-Jan-15 19:52 259 8.9
2020-Jan-15 19:47 259 8.9
2020-Jan-15 19:42 259 8.9
2020-Jan-15 19:37 259 8.9
2020-Jan-15 19:32 259 8.9
2020-Jan-15 19:27 259 8.9
2020-Jan-15 19:22 259 8.9
2020-Jan-15 19:17 259 9.4
2020-Jan-15 19:12 259 9.4
2020-Jan-15 19:07 259 9.4
2020-Jan-15 19:02 259 9.4